Location: Guadanolo
(41.9167°N, 12.9333°E)
Time: 15:18:59
(UTC+00:00)

Meteor 2-5 Rocket - Pass Details

Date: 16 September 2019
Orbit: 834 x 911 km, 81.2° (Epoch: 18 October)

Event Time Altitude Azimuth Distance (km) Brightness Sun altitude
Rises 20:00:25 0° 346° (NNW) 3,479 7.6 -29.4°
Reaches altitude 10° 20:02:52 10° 344° (NNW) 2,548 6.8 -29.7°
Maximum altitude 20:08:35 63° 264° (W) 994 4.1 -30.6°
Enters shadow 20:08:51 62° 250° (WSW) 1,000 4.0 -30.6°
